When you browse on this site, cookies collect data to enhance your experience and personalize the content and advertising you see.
Visit our Privacy Policy to learn more. By continuing to use the site, you agree to this use of cookies and data.
  • In Österreich
  • Länderverzeichnis
  • Für 7 Tage
  • Wassertemperatur
  • Satellitenkarten
  • Wetterkarte
  • News
  • Widgets
  • user-avatar
    Anmelden

    Stündliche Wetter Chinsali

    Heute, 21 März, Donnerstag

    Zeit Temperatur Niederschläge Wind Luftdruck Luftfeuchtigkeit
    00:00 +18°C° 1 mm 0 m/S 644 mmHg 91%
    01:00 +18°C° 1 mm 0 m/S 644 mmHg 92%
    02:00 +17°C° 1 mm 0 m/S 644 mmHg 92%
    03:00 +17°C° 0.7 mm 0 m/S 644 mmHg 93%
    04:00 +19°C° 0.7 mm 1 m/S 644 mmHg 93%
    05:00 +19°C° 0.7 mm 1 m/S 644 mmHg 93%
    06:00 +20°C° 0.1 mm 1 m/S 645 mmHg 91%
    07:00 +19°C° 0.1 mm 0 m/S 646 mmHg 89%
    08:00 +21°C° 0.1 mm 0 m/S 646 mmHg 87%
    09:00 +24°C° 1.3 mm 1 m/S 646 mmHg 83%
    10:00 +25°C° 1.3 mm 1 m/S 647 mmHg 79%
    11:00 +26°C° 1.3 mm 1 m/S 647 mmHg 75%
    12:00 +27°C° 1.7 mm 1 m/S 646 mmHg 74%
    13:00 +27°C° 1.7 mm 1 m/S 646 mmHg 73%
    14:00 +27°C° 1.7 mm 1 m/S 646 mmHg 73%
    15:00 +26°C° 0.8 mm 1 m/S 645 mmHg 78%
    16:00 +25°C° 0.8 mm 1 m/S 645 mmHg 83%
    17:00 +24°C° 0.8 mm 1 m/S 645 mmHg 88%
    18:00 +23°C° 1.4 mm 1 m/S 645 mmHg 90%
    19:00 +22°C° 1.4 mm 1 m/S 645 mmHg 92%
    20:00 +19°C° 1.4 mm 2 m/S 646 mmHg 95%
    21:00 +20°C° 0.3 mm 1 m/S 646 mmHg 95%
    22:00 +20°C° 0.3 mm 1 m/S 646 mmHg 96%
    23:00 +20°C° 0.3 mm 1 m/S 646 mmHg 96%

    Morgen, 22 März, Freitag

    Zeit Temperatur Niederschläge Wind Luftdruck Luftfeuchtigkeit
    00:00 +20°C° 0.2 mm 1 m/S 646 mmHg 96%
    01:00 +20°C° 0.2 mm 1 m/S 646 mmHg 96%
    02:00 +19°C° 0.2 mm 1 m/S 645 mmHg 96%
    03:00 +19°C° 0.1 mm 1 m/S 645 mmHg 96%
    04:00 +19°C° 0.1 mm 1 m/S 645 mmHg 96%
    05:00 +19°C° 0.1 mm 1 m/S 645 mmHg 96%
    06:00 +20°C° 0 mm 1 m/S 646 mmHg 94%
    07:00 +21°C° 0 mm 1 m/S 647 mmHg 92%
    08:00 +21°C° 0 mm 1 m/S 647 mmHg 90%
    09:00 +23°C° 0.1 mm 1 m/S 648 mmHg 84%
    10:00 +24°C° 0.1 mm 1 m/S 648 mmHg 77%
    11:00 +26°C° 0.1 mm 1 m/S 648 mmHg 70%
    12:00 +27°C° 0.2 mm 1 m/S 648 mmHg 68%
    13:00 +28°C° 0.2 mm 1 m/S 647 mmHg 65%
    14:00 +27°C° 0.2 mm 0 m/S 647 mmHg 62%
    15:00 +28°C° 0.4 mm 1 m/S 646 mmHg 68%
    16:00 +26°C° 0.4 mm 1 m/S 646 mmHg 74%
    17:00 +25°C° 0.4 mm 1 m/S 645 mmHg 80%
    18:00 +24°C° 0.3 mm 1 m/S 646 mmHg 84%
    19:00 +22°C° 0.3 mm 1 m/S 646 mmHg 89%
    20:00 +21°C° 0.3 mm 1 m/S 646 mmHg 93%
    21:00 +20°C° 2.1 mm 2 m/S 646 mmHg 94%
    22:00 +19°C° 2.1 mm 2 m/S 647 mmHg 95%
    23:00 +19°C° 2.1 mm 2 m/S 647 mmHg 95%

    übermorgen, 23 März, Samstag

    Zeit Temperatur Niederschläge Wind Luftdruck Luftfeuchtigkeit
    00:00 +18°C° 0.1 mm 2 m/S 646 mmHg 95%
    01:00 +18°C° 0.1 mm 2 m/S 646 mmHg 94%
    02:00 +18°C° 0.1 mm 2 m/S 645 mmHg 93%
    03:00 +18°C° 0 mm 2 m/S 645 mmHg 93%
    04:00 +18°C° 0 mm 2 m/S 645 mmHg 94%
    05:00 +18°C° 0 mm 2 m/S 645 mmHg 94%
    06:00 +18°C° 0 mm 2 m/S 646 mmHg 93%
    07:00 +19°C° 0 mm 2 m/S 647 mmHg 91%
    08:00 +20°C° 0 mm 3 m/S 647 mmHg 90%
    09:00 +21°C° 0 mm 3 m/S 647 mmHg 85%
    10:00 +22°C° 0 mm 3 m/S 647 mmHg 80%
    11:00 +24°C° 0 mm 3 m/S 648 mmHg 76%
    12:00 +25°C° 0.2 mm 2 m/S 647 mmHg 74%
    13:00 +25°C° 0.2 mm 2 m/S 646 mmHg 72%
    14:00 +26°C° 0.2 mm 2 m/S 645 mmHg 70%
    15:00 +25°C° 0.5 mm 1 m/S 645 mmHg 75%
    16:00 +25°C° 0.5 mm 1 m/S 645 mmHg 79%
    17:00 +24°C° 0.5 mm 1 m/S 645 mmHg 84%
    18:00 +23°C° 0.3 mm 1 m/S 645 mmHg 87%
    19:00 +22°C° 0.3 mm 1 m/S 645 mmHg 89%
    20:00 +20°C° 0.3 mm 2 m/S 645 mmHg 92%
    21:00 +19°C° 0.1 mm 2 m/S 646 mmHg 93%
    22:00 +19°C° 0.1 mm 2 m/S 646 mmHg 93%
    23:00 +19°C° 0.1 mm 2 m/S 646 mmHg 94%

    24 März, Sonntag

    Zeit Temperatur Niederschläge Wind Luftdruck Luftfeuchtigkeit
    00:00 +19°C° 0 mm 2 m/S 646 mmHg 95%
    01:00 +19°C° 0 mm 2 m/S 645 mmHg 95%
    02:00 +18°C° 0 mm 2 m/S 645 mmHg 95%
    03:00 +18°C° 0 mm 2 m/S 645 mmHg 96%
    04:00 +18°C° 0 mm 2 m/S 645 mmHg 96%
    05:00 +18°C° 0 mm 2 m/S 645 mmHg 96%
    06:00 +19°C° 0 mm 3 m/S 645 mmHg 94%
    07:00 +20°C° 0 mm 3 m/S 646 mmHg 91%
    08:00 +20°C° 0 mm 3 m/S 647 mmHg 88%
    09:00 +22°C° 0 mm 3 m/S 647 mmHg 81%
    10:00 +25°C° 0 mm 3 m/S 647 mmHg 73%
    11:00 +26°C° 0 mm 3 m/S 647 mmHg 66%
    12:00 +27°C° 0.1 mm 3 m/S 646 mmHg 65%
    13:00 +27°C° 0.1 mm 2 m/S 646 mmHg 64%
    14:00 +28°C° 0.1 mm 2 m/S 645 mmHg 63%
    15:00 +27°C° 0.2 mm 2 m/S 645 mmHg 68%
    16:00 +27°C° 0.2 mm 2 m/S 644 mmHg 73%
    17:00 +26°C° 0.2 mm 2 m/S 644 mmHg 78%
    18:00 +24°C° 1.7 mm 2 m/S 644 mmHg 83%
    19:00 +23°C° 1.7 mm 2 m/S 645 mmHg 88%
    20:00 +20°C° 1.7 mm 2 m/S 645 mmHg 93%
    21:00 +20°C° 0.6 mm 2 m/S 645 mmHg 94%
    22:00 +19°C° 0.6 mm 2 m/S 645 mmHg 94%
    23:00 +19°C° 0.6 mm 2 m/S 645 mmHg 94%

    25 März, Montag

    Zeit Temperatur Niederschläge Wind Luftdruck Luftfeuchtigkeit
    00:00 +19°C° 0.2 mm 2 m/S 645 mmHg 95%
    01:00 +19°C° 0.2 mm 2 m/S 644 mmHg 95%
    02:00 +19°C° 0.2 mm 2 m/S 644 mmHg 95%
    03:00 +18°C° 0 mm 2 m/S 644 mmHg 95%
    04:00 +18°C° 0 mm 2 m/S 645 mmHg 95%
    05:00 +18°C° 0 mm 2 m/S 645 mmHg 96%
    06:00 +19°C° 0 mm 2 m/S 645 mmHg 94%
    07:00 +20°C° 0 mm 2 m/S 646 mmHg 93%
    08:00 +20°C° 0 mm 2 m/S 647 mmHg 92%
    09:00 +21°C° 0.9 mm 2 m/S 647 mmHg 88%
    10:00 +24°C° 0.9 mm 2 m/S 647 mmHg 85%
    11:00 +25°C° 0.9 mm 2 m/S 647 mmHg 82%
    12:00 +24°C° 1.2 mm 2 m/S 646 mmHg 83%
    13:00 +24°C° 1.2 mm 2 m/S 645 mmHg 83%
    14:00 +24°C° 1.2 mm 2 m/S 644 mmHg 84%
    15:00 +23°C° 0.7 mm 1 m/S 644 mmHg 87%
    16:00 +23°C° 0.7 mm 1 m/S 644 mmHg 89%
    17:00 +20°C° 0.7 mm 0 m/S 644 mmHg 92%
    18:00 +19°C° 0.3 mm 0 m/S 645 mmHg 92%
    19:00 +19°C° 0.3 mm 0 m/S 645 mmHg 93%
    20:00 +18°C° 0.3 mm 0 m/S 645 mmHg 93%
    21:00 +20°C° 0.4 mm 1 m/S 646 mmHg 94%
    22:00 +20°C° 0.4 mm 1 m/S 646 mmHg 95%
    23:00 +20°C° 0.4 mm 1 m/S 646 mmHg 96%

    26 März, Dienstag

    Zeit Temperatur Niederschläge Wind Luftdruck Luftfeuchtigkeit
    00:00 +20°C° 0.2 mm 1 m/S 646 mmHg 96%
    01:00 +19°C° 0.2 mm 1 m/S 645 mmHg 96%
    02:00 +19°C° 0.2 mm 1 m/S 645 mmHg 97%
    03:00 +19°C° 0 mm 1 m/S 645 mmHg 97%
    04:00 +19°C° 0 mm 1 m/S 645 mmHg 97%
    05:00 +18°C° 0 mm 2 m/S 646 mmHg 97%
    06:00 +19°C° 0.1 mm 1 m/S 646 mmHg 96%
    07:00 +20°C° 0.1 mm 1 m/S 647 mmHg 94%
    08:00 +20°C° 0.1 mm 1 m/S 648 mmHg 93%
    09:00 +22°C° 0.1 mm 1 m/S 648 mmHg 86%
    10:00 +23°C° 0.1 mm 1 m/S 648 mmHg 79%
    11:00 +25°C° 0.1 mm 1 m/S 648 mmHg 72%
    12:00 +25°C° 0.3 mm 1 m/S 647 mmHg 72%
    13:00 +25°C° 0.3 mm 2 m/S 647 mmHg 72%
    14:00 +26°C° 0.3 mm 2 m/S 646 mmHg 72%
    15:00 +25°C° 0.3 mm 2 m/S 646 mmHg 76%
    16:00 +24°C° 0.3 mm 2 m/S 646 mmHg 81%
    17:00 +23°C° 0.3 mm 2 m/S 646 mmHg 86%
    18:00 +22°C° 0.1 mm 1 m/S 646 mmHg 89%
    19:00 +21°C° 0.1 mm 1 m/S 646 mmHg 91%
    20:00 +20°C° 0.1 mm 1 m/S 647 mmHg 94%
    21:00 +20°C° 0 mm 1 m/S 647 mmHg 94%
    22:00 +20°C° 0 mm 1 m/S 647 mmHg 94%
    23:00 +19°C° 0 mm 1 m/S 647 mmHg 94%
    Mehr zeigen